Weather History for Shelton, WA

Change the Weather History Date:

Sunday, September 8, 2013

  Actual Average Record
Temperature  
Mean Temperature 64 °F -  
Max Temperature 79 °F 73 °F 89 °F (1948)
Min Temperature 48 °F 50 °F 37 °F (2001)
Degree Days  
Heating Degree Days 2    
Growing Degree Days 14 (Base 50)    
Moisture  
Dew Point 54 °F    
Average Humidity 87    
Maximum Humidity 100    
Minimum Humidity 47    
Precipitation  
Precipitation 0.00 in - - ()
Sea Level Pressure  
Sea Level Pressure 30.07 in    
Wind  
Wind Speed 1 mph (SSW)    
Max Wind Speed 10 mph    
Max Gust Speed -    
Visibility 6 miles    
Events Fog    
Averages and records for this station are not official NWS values.
T = Trace of Precipitation, MM = Missing Value Source: NWS Daily Summary

Daily Weather History Graph

Daily Weather History Graph

Search for Another Location

Airport:

Trip Planner

Search our weather history database for the weather conditions in past years. The results will help you decide how hot, cold, wet, or windy it might be!

Date:

Astronomy

Sep. 08, 2013 Rise Set
Actual Time 6:41 AM PDT 7:37 PM PDT
Civil Twilight 6:10 AM PDT 8:08 PM PDT
Nautical Twilight 5:32 AM PDT 8:46 PM PDT
Astronomical Twilight 4:53 AM PDT 9:25 PM PDT
Moon 10:22 AM PDT (9/8) 8:58 PM PDT (9/8)
Length of Visible Light 13h 58m
Length of Day
12h 56m
Waxing Crescent, 12% of the Moon is Illuminated
Sep 8
Waxing Crescent
Sep 12
First Quarter
Sep 19
Full
Sep 26
Last Quarter
Oct 4
New

Hourly Weather History & Observations

Time (PDT) Temp. Dew Point Humidity Pressure Visibility Wind Dir Wind Speed Gust Speed Precip Events Conditions
12:39 AM 55.4 °F 53.6 °F 94% 30.05 in 8.0 mi Calm Calm - N/A   Partly Cloudy
12:53 AM 55.0 °F 53.1 °F 93% 30.05 in 10.0 mi Calm Calm - N/A   Partly Cloudy
1:32 AM 53.6 °F 51.8 °F 94% 30.06 in 2.0 mi Calm Calm - N/A   Mostly Cloudy
1:51 AM 51.8 °F 51.8 °F 100% 30.06 in 1.2 mi Calm Calm - N/A   Overcast
1:53 AM 52.0 °F 51.1 °F 97% 30.06 in 0.8 mi Calm Calm - N/A   Mist
2:53 AM 53.1 °F 53.1 °F 100% 30.07 in 0.2 mi Calm Calm - N/A Fog Fog
3:23 AM 51.8 °F 51.8 °F 100% 30.06 in 1.2 mi Calm Calm - N/A   Overcast
3:42 AM 51.8 °F 51.8 °F 100% 30.06 in 0.5 mi Calm Calm - N/A Fog Fog
3:53 AM 52.0 °F 52.0 °F 100% 30.06 in 0.5 mi Calm Calm - N/A Fog Fog
4:34 AM 50.0 °F 48.2 °F 94% 30.07 in 1.5 mi Calm Calm - N/A   Overcast
4:45 AM 51.8 °F 50.0 °F 94% 30.06 in 0.8 mi Calm Calm - N/A   Mist
4:53 AM 50.0 °F 50.0 °F 100% 30.07 in 0.5 mi SW 4.6 mph - N/A Fog Fog
5:15 AM 50.0 °F 50.0 °F 100% 30.07 in 2.5 mi Calm Calm - N/A   Mostly Cloudy
5:20 AM 50.0 °F 50.0 °F 100% 30.07 in 9.0 mi Calm Calm - N/A   Scattered Clouds
5:53 AM 50.0 °F 48.9 °F 96% 30.08 in 10.0 mi Calm Calm - N/A   Clear
6:40 AM 50.0 °F 48.2 °F 94% 30.08 in 8.0 mi NW 3.5 mph - N/A   Scattered Clouds
6:53 AM 48.0 °F 48.0 °F 100% 30.09 in 10.0 mi Calm Calm - N/A   Scattered Clouds
7:13 AM 48.2 °F 48.2 °F 100% 30.09 in 2.0 mi Calm Calm - N/A   Partly Cloudy
7:21 AM 48.2 °F 48.2 °F 100% 30.09 in 5.0 mi Calm Calm - N/A   Partly Cloudy
7:35 AM 50.0 °F 48.2 °F 94% 30.09 in 2.5 mi SW 4.6 mph - N/A   Mostly Cloudy
7:48 AM 51.8 °F 51.8 °F 100% 30.10 in 9.0 mi Calm Calm - N/A   Overcast
7:53 AM 52.0 °F 52.0 °F 100% 30.10 in 10.0 mi Calm Calm - N/A   Overcast
8:01 AM 51.8 °F 51.8 °F 100% 30.09 in 1.5 mi Calm Calm - N/A   Overcast
8:10 AM 51.8 °F 51.8 °F 100% 30.09 in 0.5 mi Calm Calm - N/A Fog Fog
8:20 AM 53.6 °F 53.6 °F 100% 30.09 in 2.0 mi Calm Calm - N/A   Overcast
8:35 AM 55.4 °F 55.4 °F 100% 30.09 in 1.2 mi Calm Calm - N/A   Overcast
8:48 AM 57.2 °F 55.4 °F 94% 30.09 in 3.0 mi Calm Calm - N/A   Overcast
8:53 AM 57.9 °F 57.0 °F 97% 30.09 in 7.0 mi Calm Calm - N/A   Overcast
9:11 AM 59.0 °F 57.2 °F 94% 30.10 in 10.0 mi Calm Calm - N/A   Scattered Clouds
9:53 AM 64.9 °F 59.0 °F 81% 30.10 in 10.0 mi Variable 3.5 mph - N/A   Clear
10:53 AM 68.0 °F 57.0 °F 68% 30.10 in 10.0 mi Calm Calm - N/A   Clear
11:53 AM 72.0 °F 57.9 °F 61% 30.09 in 10.0 mi South 3.5 mph - N/A   Clear
12:53 PM 75.0 °F 57.0 °F 53% 30.09 in 10.0 mi East 3.5 mph - N/A   Clear
1:53 PM 77.0 °F 57.9 °F 52% 30.07 in 10.0 mi ESE 5.8 mph - N/A   Clear
2:53 PM 77.0 °F 57.9 °F 52% 30.05 in 10.0 mi SE 6.9 mph - N/A   Clear
3:53 PM 79.0 °F 57.9 °F 48% 30.04 in 10.0 mi ESE 6.9 mph - N/A   Clear
4:53 PM 79.0 °F 57.0 °F 47% 30.03 in 10.0 mi ESE 10.4 mph - N/A   Clear
5:53 PM 75.9 °F 57.0 °F 52% 30.02 in 10.0 mi SE 6.9 mph - N/A   Scattered Clouds
6:53 PM 73.9 °F 59.0 °F 59% 30.02 in 10.0 mi SSW 5.8 mph - N/A   Scattered Clouds
7:53 PM 71.1 °F 62.1 °F 73% 30.02 in 10.0 mi WSW 5.8 mph - N/A   Overcast
8:53 PM 68.0 °F 61.0 °F 78% 30.03 in 10.0 mi WSW 4.6 mph - N/A   Overcast
9:53 PM 64.0 °F 60.1 °F 87% 30.03 in 10.0 mi WSW 6.9 mph - N/A   Overcast
10:32 PM 60.8 °F 59.0 °F 94% 30.04 in 10.0 mi SW 3.5 mph - N/A   Overcast
10:40 PM 60.8 °F 59.0 °F 94% 30.04 in 10.0 mi WSW 6.9 mph - N/A   Overcast
10:53 PM 61.0 °F 59.0 °F 93% 30.04 in 10.0 mi WSW 6.9 mph - N/A   Overcast
11:31 PM 60.8 °F 57.2 °F 88% 30.04 in 10.0 mi WSW 4.6 mph - N/A   Overcast
11:53 PM 60.1 °F 57.9 °F 93% 30.04 in 10.0 mi West 3.5 mph - N/A   Overcast